User: anonymous   Login
Location: Morlupo
(42.1333°N, 12.5000°E)
Time: 12:46:54
(UTC+00:00)
Language:

Cosmos 1891 Rocket - Orbit

View from above orbital plane
View from above orbital plane
View from above satellite
View from above satellite

Ground track
Ground track

The orbit data is extracted from the following two-line orbital elements,

1 18403U 87087B   21162.86988327  .00000027  00000-0  10965-4 0  9993
2 18403  82.9193  87.5764 0059002  73.0867 287.6747 13.76544079690310
Epoch (UTC): 11 June 2021 20:52:37
Eccentricity: 0.0059002
inclination: 82.9193°
perigee height: 933 km
apogee height: 1019 km
right ascension of ascending node: 87.5764°
argument of perigee: 73.0867°
revolutions per day: 13.76544079
mean anomaly at epoch: 287.6747°
orbit number at epoch: 69031

The dashed part of the orbit path shows where the satellite is in the earth's shadow,  

DLR